{"data":{"norad_id":57912,"epoch":"2026-09-20T09:03:41.341248Z","epoch_age_seconds":145135,"freshness":"FRESH","line1":"1 57912U 23146X   26263.37756182  .00000446  00000+0  25733-4 0  9995","line2":"2 57912  43.0003 291.0924 0001266 270.8470  89.2237 15.27575952166873","mean_motion":15.27575952,"eccentricity":0.0001266,"inclination_deg":43.0003,"raan_deg":291.0924,"arg_perigee_deg":270.847,"mean_anomaly_deg":89.2237,"bstar":2.5733e-5,"rev_number":16687,"period_min":94.266998515829,"perigee_km":482.19258954038,"apogee_km":483.92984492898,"semimajor_km":6861.1982172347,"source":"CELESTRAK","updated_at":"2026-09-21T09:00:33.740077Z"}}